Skip Page Navigation
NASA JPL Caltech
NASA Logo - Jet Propulsion Laboratory + View the NASA Portal
+ Center for Near-Earth Object Studies
JPL Home Earth Solar System Stars & Galaxies Technology
JPL Solar System Dynamics
BODIES ORBITS EPHEMERIDES TOOLS PHYSICAL DATA DISCOVERY FAQ SITE MAP
JPL Small-Body Database Browser
Search: [ help ]  
312183 (2007 VD50)
Classification: Main-belt Asteroid          SPK-ID: 2312183
Ephemeris | Orbit Diagram | Orbital Elements | Mission Design | Physical Parameters | Discovery Circumstances ]

[ show orbit diagram ]
Orbital Elements at Epoch 2459000.5 (2020-May-31.0) TDB
Reference: JPL 12 (heliocentric ecliptic J2000)
 Element Value Uncertainty (1-sigma)   Units 
e .05953557544659195 6.3155e-08  
a 2.352830444591782 1.9005e-08 au
q 2.21275333014475 1.4841e-07 au
i 7.549894210415959 7.3767e-06 deg
node 22.86024445354673 3.5935e-05 deg
peri 198.6965530820679 7.2368e-05 deg
M 2.093199862337967 5.7641e-05 deg
tp 2458992.835345723032
(2020-May-23.33534572)
0.00021112 TDB
period 1318.209306887017
3.61
1.5972e-05
4.373e-08
d
yr
n .2730977532317297 3.3089e-09 deg/d
Q 2.492907559038815 2.0137e-08 au
  Orbit Determination Parameters
   # obs. used (total)      189  
   data-arc span      6588 days (18.04 yr)  
   first obs. used      2002-04-14  
   last obs. used      2020-04-27  
   planetary ephem.      DE431  
   SB-pert. ephem.      SB431-N16  
   condition code      0  
   norm. resid. RMS      .5563  
   source      ORB  
   producer      Otto Matic  
   solution date      2020-May-21 20:26:43  

Additional Information
 Earth MOID = 1.20636 au 
 Jupiter MOID = 2.47473 au 
 T_jup = 3.542 
[ show covariance matrix ]

Ephemeris | Orbit Diagram | Orbital Elements | Mission Design | Physical Parameters | Discovery Circumstances ]

Physical Parameter Table
Parameter Symbol Value Units Sigma Reference Notes
absolute magnitude H 17.2   n/a MPO418614  

312183 (2007 VD50)          Discovered 2007-Nov-01 by Spacewatch at Kitt Peak
Reference: 20120109/Numbers.arcLast Updated: 2012-01-11
Ephemeris | Orbit Diagram | Orbital Elements | Mission Design | Physical Parameters | Discovery Circumstances ]
ABOUT SSD CREDITS/AWARDS PRIVACY/COPYRIGHT GLOSSARY LINKS
FirstGov 2020-Aug-11 16:58 UT
(server date/time)  
NASA Home Page
Site Manager:   Ryan S. Park
Webmaster  Alan B. Chamberlin